Location: Oshawa
(43.9000°N, 78.8670°W)
Time: 04:09:14
(UTC-04:00)

Courier 1B - All Passes

Search period start: 24 March 2017 00:00
Search period end: 03 April 2017 00:00
Orbit: 963 x 1209 km, 28.3° (Epoch: 22 March)

Date Brightness Start Highest point End Pass type
(mag) Time Alt. Az. Time Alt. Az. Time Alt. Az.
24 Mar - 13:50:43 10° S 13:52:18 11° SSE 13:53:54 10° SE daylight
24 Mar - 15:40:27 10° SW 15:45:06 20° S 15:49:56 10° SE daylight
24 Mar - 17:33:12 10° SW 17:38:08 21° S 17:43:16 10° SE daylight
24 Mar - 19:28:06 10° SW 19:31:09 13° SSW 19:34:15 10° S daylight
25 Mar - 14:47:24 10° SSW 14:51:37 18° SSE 14:55:57 10° SE daylight
25 Mar - 16:39:42 10° SW 16:44:36 21° S 16:49:42 10° SE daylight
25 Mar - 18:33:49 10° SW 18:37:37 15° SSW 18:41:32 10° SSE daylight
26 Mar - 13:54:35 10° SSW 13:58:11 15° SSE 14:01:50 10° SE daylight
26 Mar - 15:46:18 10° SW 15:51:05 21° S 15:56:02 10° SE daylight
26 Mar - 17:39:52 10° SW 17:44:06 17° SSW 17:48:27 10° SSE daylight
27 Mar - 13:02:09 10° S 13:04:46 13° SSE 13:07:24 10° SE daylight
27 Mar - 14:53:01 10° SW 14:57:36 20° S 15:02:19 10° SE daylight
27 Mar - 16:46:08 10° SW 16:50:35 19° S 16:55:11 10° SSE daylight
28 Mar - 13:59:50 10° SSW 14:04:08 19° S 14:08:31 10° SE daylight
28 Mar - 15:52:32 10° SW 15:57:05 20° S 16:01:46 10° SE daylight
28 Mar - 17:47:27 10° SW 17:50:01 12° SSW 17:52:39 10° S daylight
29 Mar - 13:06:49 10° SSW 13:10:42 17° SSE 13:14:37 10° SE daylight
29 Mar - 14:59:02 10° SW 15:03:36 20° S 15:08:18 10° SE daylight
29 Mar - 16:53:08 10° SW 16:56:33 14° SSW 17:00:02 10° SSE daylight
30 Mar - 12:14:00 10° SSW 12:17:16 14° SSE 12:20:33 10° SE daylight
30 Mar - 14:05:38 10° SW 14:10:09 20° S 14:14:44 10° SE daylight
30 Mar - 15:59:12 10° SW 16:03:04 16° SSW 16:07:03 10° SSE daylight
31 Mar - 11:21:35 10° S 11:23:52 12° SSE 11:26:07 10° SE daylight
31 Mar - 13:12:18 10° SW 13:16:41 19° S 13:21:06 10° SE daylight
31 Mar - 15:05:26 10° SW 15:09:37 18° S 15:13:52 10° SSE daylight
01 Apr - 12:19:04 10° SSW 12:23:15 18° S 12:27:24 10° SE daylight
01 Apr - 14:11:48 10° SW 14:16:10 19° S 14:20:34 10° SE daylight
01 Apr - 16:06:50 10° SW 16:09:01 12° SSW 16:11:14 10° S daylight
02 Apr - 11:25:59 10° SSW 11:29:48 16° SSE 11:33:36 10° SE daylight
02 Apr - 13:18:15 10° SW 13:22:42 20° S 13:27:11 10° SE daylight
02 Apr - 15:12:25 10° SW 15:15:35 14° SSW 15:18:47 10° SSE daylight
